OBJECT D, 64531

Orbit data source: Space-Track

You're viewing an Uncataloged Satellite

Recently launched and/or uncataloged satellites may have evolving metadata. Metadata may include but not limited to: Owner, Maufacturer, Bus, Motor, and Mission.

OBJECT D, 64531 is a New Zealander satellite in SSO that was launched on Mon, 23 Jun 2025 UTC via an FALCON 9 launch vehicle from the Air Force Western Test Range (AFWTR). Unknown objects in Earth's orbit typically refer to objects detected orbiting the Earth but have not yet been identified or cataloged. These objects could be anything from previously untracked satellites, spent rocket stages, debris from satellite collisions, or even natural meteoroids temporarily captured by Earth's gravity.

Loading next visibility...
Identifier
64531, 2025-135D
Orbit
SSO
Country
Flag of NZNZ
Related business
None
Manufacturer
Unknown
Mission
Operational Commercial Imaging
Bus & Motor
Unknown
Mass
Unknown
Launch date (UTC)
2025-06-23 (8 months ago)
Launch vehicle
FALCON 9
Launch site
Air Force Western Test Range (AFWTR)
Object type
Unknown
Shape & HBR
Box, 0.1 m
Radar Cross Section
0.015 m², Medium (>0.1 m² and < 1m²)

Expand to show TLE details & history
Last TLE update: 8 hours ago

TLE from 8 hours ago
0 OBJECT D
1 64531U 25135D   26062.42547614  .00015465  00000-0  64698-3 0  9991
2 64531  97.4592 178.9159 0005189 168.0797 192.0563 15.23658488 38803
Epoch: 2026-03-03T10:12Z
TLE epoch observation values (Epoch: 2026-03-03T10:12:41.138Z)
Latitude
-0.0001°
Longitude
-135.46021°
Altitude
501.399 km
Speed
7.612 km/s
True Right ascension
11h 55m 39s
True Declination
0° 00' 00"
Sunlit
Object was in full shadow at epoch
Visualization orbit readout
Latitude
Unknown
Longitude
Unknown
Altitude
Unknown
Speed
Unknown
Apparent Right ascension
Unknown
Apparent Declination
Unknown
Sunlit
N/A
Visualization observer readout
Local Sidereal Time
21:49:47
Azimuth
Unknown
Elevation
Unknown
Doppler factor
Unknown
Orbital elements
Apogee altitude
495.345 km
Perigee altitude
488.215 km
Semi-major axis
6,869.917 km
Eccentricity
0.00052
Inclination
97.4592°
RAAN
178.9159°
Arg. of periapsis
168.0797°
True anomaly
192.04389°
Mean anomaly
192.0563°
Eccentric anomaly
192.05009°
Mean motion
3.81168 °/min
Orbital period
94.45 mins
BSTAR
0.00064698
Loading maneuver chart data...
Computing Atmospheric mass density...
Loading historical data...
Loading historical data...
Loading historical data...
Loading historical data...
Loading historical data...
Loading historical data...
Loading historical data...

Documentation

Showing up to 5 results
|